[[{"header":{"parameterUnit":"m.s-1","parameterCategory":1,"la1":30.2992,"la2":30.254,"lo1":-89.0895,"lo2":-89.0443,"dy":0.0025,"dx":0.0025,"nx":19,"ny":19,"refTime":"2026-05-22T09:00:00:Z","depth":0,"parameterNumber":2,"parameterNumberName":"U-component_of_WINDS"},"data":[0,0,0,-0.9555,-0.9562,-0.9933,-0.9935,-1.0365,-1.0369,0,0,0,0,0,0,0,0,0,0,0,-0.9409,-0.9411,-0.9554,-0.9562,-0.9933,-0.9935,-1.0365,-1.0369,0,0,0,0,0,0,0,0,0,0,0,-0.9409,-0.941,-0.9412,-0.9563,-0.9933,-0.9936,-1.0364,-1.0101,0,0,0,0,0,0,0,0,0,0,-0.9749,-0.9578,-0.941,-0.9412,-0.9565,-0.9932,-0.9936,-1.009,-1.0118,-1.0175,0,-1.021,0,-1.0296,-1.0394,-1.0395,0,0,0,-0.959,-0.9554,-0.9686,-0.9413,-0.9568,-0.9932,-0.9774,-1.0106,-1.0138,-1.0212,-1.0217,-1.0235,-1.0303,-1.0396,-1.0398,-1.0625,-1.0625,0,0,-0.9569,-0.9458,-0.9664,-0.9705,-0.9636,-0.9762,-0.9785,-1.0126,-1.0126,-1.0219,-1.0246,-1.031,-1.0399,-1.0402,-1.0626,-1.0625,0,0,0,-0.9492,-0.9443,-0.9568,-0.9686,-0.9756,-0.9772,-0.9799,-1.0111,-1.0161,-1.0251,-1.0315,-1.0401,-1.0406,-1.0626,-1.0626,-1.0504,0,0,0,-0.9481,-0.9398,-0.9557,-0.9493,-0.9748,-0.9936,-0.9775,-1.0137,-1.0179,-1.0313,-1.0401,-1.0409,-1.0627,-1.0626,-1.0508,-1.0465,0,0,0,-0.9397,-0.9389,-0.9429,-0.9486,-0.9641,-0.9933,-1.0004,-1.0149,-1.0217,-1.0396,-1.041,-1.0627,-1.0626,-1.0512,-1.0471,-1.0494,0,0,0,-0.9277,-0.9316,-0.9425,-0.9496,-0.9637,-0.9853,-1.0003,-1.0171,-1.0309,-1.0403,-1.0626,-1.0626,-1.0513,-1.0475,-1.0497,-1.0492,-1.0478,0,0,-0.9264,-0.931,-0.9361,-0.947,-0.9637,-0.9806,-0.9961,-1.0194,-1.0316,-1.0518,-1.0525,-1.0507,-1.0472,-1.0495,-1.0446,-1.0434,0,0,0,-0.932,-0.9354,-0.9423,-0.9547,-0.9725,-0.9878,-1.01,-1.0189,-1.0365,-1.0394,-1.0525,-1.0508,-1.0526,-1.0529,-1.0519,-1.0544,-1.0622,-1.0622,-1.0622,-0.9139,-0.9292,-0.9388,-0.9586,-0.9707,-0.9938,-1.0053,-1.0214,-1.0332,-1.0361,-1.0421,-1.0372,-1.0371,-1.0365,-1.0388,-1.0432,-1.0431,-1.0431,-1.043,-0.9136,-0.921,-0.9371,-0.9519,-0.9684,-0.9815,-1.0045,-1.0126,-1.0277,-1.0338,-1.0362,-1.0415,-1.0347,-1.0377,-1.0423,-1.0424,-1.0425,-1.0426,-1.0426,-0.9034,-0.9096,-0.9202,-0.9403,-0.9543,-0.9748,-0.9885,-1.0032,-1.0171,-1.0195,-1.0277,-1.028,-1.0302,-1.0224,-1.0224,-1.0224,-1.0223,-1.0223,-1.0223,-0.8885,-0.9009,-0.9103,-0.93,-0.9404,-0.9559,-0.9799,-0.9908,-1.0067,-1.0163,-1.0165,-1.0284,-1.0311,-1.0315,-1.0221,-1.0222,-1.0222,-1.0222,-1.0222,-0.8822,-0.8861,-0.9005,-0.9108,-0.9358,-0.949,-0.9678,-0.9888,-1.0,-1.0065,-1.0183,-1.0179,-1.0237,-1.0246,-1.025,-1.0147,-1.0147,-1.0147,-1.0147,-0.8735,-0.878,-0.8965,-0.9121,-0.9293,-0.9479,-0.9648,-0.984,-1.0045,-1.0126,-1.0164,-1.0183,-1.0185,-1.0244,-1.0252,-1.0259,-1.0159,-1.0159,-1.0159,-0.8707,-0.8776,-0.8885,-0.9082,-0.929,-0.9468,-0.9634,-0.9816,-1.0058,-1.0163,-1.0194,-1.0194,-1.0227,-1.0228,-1.0328,-1.0339,-1.0354,0,0]},{"header":{"parameterUnit":"m.s-1","parameterCategory":1,"la1":30.2992,"la2":30.254,"lo1":-89.0895,"lo2":-89.0443,"dy":0.0025,"dx":0.0025,"nx":19,"ny":19,"refTime":"2026-05-22T09:00:00:Z","depth":0,"parameterNumber":3,"parameterNumberName":"V-component_of_WINDS"},"data":[0,0,0,6.7298,6.7307,6.7755,6.7757,6.8306,6.8311,0,0,0,0,0,0,0,0,0,0,0,6.7147,6.715,6.7297,6.7308,6.7755,6.7758,6.8305,6.8311,0,0,0,0,0,0,0,0,0,0,0,6.7145,6.7149,6.7153,6.7309,6.7755,6.7758,6.8304,6.7975,0,0,0,0,0,0,0,0,0,0,6.7544,6.7387,6.7148,6.7153,6.7312,6.7754,6.7758,6.796,6.7996,6.8091,0,6.8169,0,6.8248,6.8346,6.8347,0,0,0,6.7322,6.7356,6.7494,6.7153,6.7316,6.7754,6.7557,6.798,6.8021,6.8139,6.8177,6.8198,6.8257,6.8349,6.8352,6.8852,6.8854,0,0,6.7297,6.7218,6.7465,6.7519,6.7445,6.7543,6.7571,6.8005,6.8043,6.8179,6.8212,6.8266,6.8352,6.8356,6.8851,6.8852,0,0,0,6.7216,6.72,6.7327,6.7496,6.7578,6.7555,6.7588,6.8023,6.8071,6.8218,6.8273,6.8355,6.8362,6.8849,6.8851,6.8858,0,0,0,6.7202,6.7153,6.7316,6.7272,6.7569,6.7806,6.7595,6.8041,6.8093,6.827,6.8356,6.8367,6.8847,6.885,6.8854,6.8874,0,0,0,6.7124,6.7144,6.7203,6.7267,6.7457,6.7801,6.7874,6.8054,6.8126,6.8348,6.8368,6.8846,6.8849,6.885,6.8869,6.8985,0,0,0,6.7018,6.7201,6.7201,6.7429,6.7452,6.78,6.7872,6.8136,6.8326,6.8358,6.8847,6.8851,6.8849,6.8865,6.8981,6.9069,6.9098,0,0,6.7206,6.7221,6.7361,6.7375,6.7702,6.7738,6.8069,6.8319,6.8413,6.8701,6.8715,6.8855,6.8868,6.8984,6.9286,6.9308,0,0,0,6.7394,6.7494,6.7598,6.7776,6.7971,6.8141,6.8349,6.8443,6.8691,6.8544,6.893,6.8941,6.9012,6.9058,6.9077,6.9145,6.8868,6.8868,6.8868,6.7547,6.7657,6.7898,6.8063,6.8235,6.8449,6.86,6.8764,6.8824,6.8914,6.9,6.9169,6.922,6.9235,6.9304,6.9055,6.9055,6.9055,6.9055,6.7834,6.7994,6.8072,6.8333,6.845,6.8673,6.8888,6.8924,6.915,6.9112,6.9181,6.9131,6.9256,6.9323,6.9057,6.9057,6.9056,6.9056,6.9056,6.7947,6.8043,6.8153,6.8424,6.8621,6.8784,6.8998,6.9098,6.9193,6.926,6.9365,6.9365,6.938,6.9303,6.9303,6.9304,6.9305,6.9305,6.9305,6.802,6.8145,6.8312,6.8537,6.8666,6.8849,6.9069,6.92,6.9372,6.9428,6.9429,6.9483,6.9247,6.9186,6.9315,6.9313,6.9312,6.9311,6.9311,6.8272,6.8232,6.8489,6.8618,6.8893,6.9085,6.9209,6.9469,6.9593,6.9696,6.9738,6.9546,6.9569,6.9555,6.9506,6.971,6.971,6.971,6.971,6.8368,6.839,6.8678,6.8879,6.9088,6.9228,6.9521,6.9695,6.987,6.9954,6.994,6.9882,6.9863,6.9899,6.9877,6.9833,7.0116,7.0116,7.0117,6.8531,6.8578,6.8805,6.8973,6.9197,6.9388,6.9668,6.99,7.0089,7.0135,7.0024,7.0007,6.9916,6.988,6.9922,6.9885,6.9806,0,0]}]]